Zurück zum Katalog

FENGYUN 1C DEB

AktivPO
NORAD 31905·DEBRIS·🇨🇳 China

Gestartet May 10, 1999 von Taiyuan Satellite Launch Center

Loading…

Nächste Überflüge (nächste 24 Stunden)

TLE

AktuellSource: Space-Track

Epoche: Sep 14, 2026, 10:50 UTC

1 31905U 99025CLG 26257.45141018  .00001456  00000-0  43747-3 0  9993
2 31905  99.1734 255.0878 0193860  12.5593 348.0321 14.34124083  5534

Verfolge FENGYUN 1C DEB in Echtzeit mit AllMySat

Download on the App Store